San Angelo, TX

12:18 PM CDT on April 30, 2017 (GMT -0500)
San Angelo Regional-Mathis

Weather History for KSJT - December, 2012

Change the Weather History Date:

Sunday, December 9, 2012

  Actual Average Record
Temperature  
Mean Temperature 55 °F 47 °F  
Max Temperature 70 °F 61 °F 80 °F (1970)
Min Temperature 40 °F 34 °F 11 °F (2005)
Degree Days  
Heating Degree Days 10 18  
Month to date heating degree days 40 150  
Since 1 July heating degree days 345 550  
Cooling Degree Days 0 0  
Month to date cooling degree days 17 0  
Year to date cooling degree days 3243 2502  
Growing Degree Days 5 (Base 50)    
Moisture  
Dew Point 47 °F    
Average Humidity 60    
Maximum Humidity 93    
Minimum Humidity 26    
Precipitation  
Precipitation 0.00 in 0.02 in 3.71 in (1911)
Month to date precipitation 0.00 0.22  
Year to date precipitation 21.78 20.62  
Snow  
Snow 0.00 in 0.00 in 1.00 in (1967)
Month to date snowfall 0.0 0.1  
Since 1 July snowfall T 0.4  
Snow Depth 0.00 in    
Sea Level Pressure  
Sea Level Pressure 29.88 in    
Wind  
Wind Speed 11 mph (West)    
Max Wind Speed 29 mph    
Max Gust Speed 36 mph    
Visibility 7 miles    
Events Fog    
T = Trace of Precipitation, MM = Missing Value Source: NWS Daily Summary

Daily Weather History Graph

Daily Weather History Graph

Search for Another Location

Airport or City:

Trip Planner

Search our weather history database for the weather conditions in past years. The results will help you decide how hot, cold, wet, or windy it might be!

Date:

Astronomy

Dec. 09, 2012 Rise Set
Actual Time 7:29 AM CST 5:39 PM CST
Civil Twilight 7:03 AM CST 6:06 PM CST
Nautical Twilight 6:32 AM CST 6:36 PM CST
Astronomical Twilight 6:03 AM CST 7:05 PM CST
Moon 3:16 AM CST (12/9) 2:37 PM CST (12/9)
Length of Visible Light 11h 02m
Length of Day
10h 09m
Waning Crescent, 18% of the Moon is Illuminated
Dec 9
Waning Crescent
Dec 13
New
Dec 19
First Quarter
Dec 28
Full
Jan 4
Last Quarter

Hourly Weather History & Observations

Time (CST) Temp. Windchill Dew Point Humidity Pressure Visibility Wind Dir Wind Speed Gust Speed Precip Events Conditions
12:51 AM 57.9 °F - 55.0 °F 90% 29.80 in 6.0 mi SSW 6.9 mph - N/A   Clear
1:51 AM 57.0 °F - 55.0 °F 93% 29.78 in 5.0 mi SW 5.8 mph - N/A   Clear
2:51 AM 55.9 °F - 54.0 °F 93% 29.78 in 5.0 mi West 3.5 mph - N/A   Clear
3:51 AM 55.0 °F - 54.0 °F 96% 29.78 in 3.0 mi Calm Calm - N/A   Clear
5:26 AM 59.0 °F - 57.2 °F 94% 29.84 in 5.0 mi WSW 10.4 mph - N/A   Scattered Clouds
5:34 AM 59.0 °F - 57.2 °F 94% 29.84 in 5.0 mi WSW 9.2 mph - N/A   Mostly Cloudy
5:51 AM 59.0 °F - 57.9 °F 96% 29.81 in 5.0 mi WSW 5.8 mph - N/A   Overcast
6:51 AM 59.0 °F - 57.0 °F 93% 29.84 in 5.0 mi SW 8.1 mph - N/A   Mostly Cloudy
7:03 AM 59.0 °F - 57.2 °F 94% 29.87 in 6.0 mi SW 11.5 mph - N/A   Scattered Clouds
7:43 AM 55.4 °F - 53.6 °F 94% 29.88 in 1.8 mi SW 4.6 mph - N/A   Clear
7:51 AM 55.0 °F - 54.0 °F 96% 29.85 in 1.0 mi SSW 5.8 mph - N/A   Clear
7:58 AM 53.6 °F - 53.6 °F 100% 29.88 in 0.2 mi SW 6.9 mph - N/A Fog Fog
8:05 AM 55.4 °F - 53.6 °F 94% 29.88 in 0.8 mi SSW 6.9 mph - N/A   Clear
8:12 AM 55.4 °F - 55.4 °F 100% 29.88 in 1.8 mi SW 6.9 mph - N/A   Clear
8:19 AM 55.4 °F - 55.4 °F 100% 29.88 in 2.5 mi SSW 5.8 mph - N/A   Clear
8:32 AM 57.2 °F - 55.4 °F 94% 29.88 in 3.0 mi SSW 6.9 mph - N/A   Clear
8:51 AM 59.0 °F - 57.0 °F 93% 29.86 in 6.0 mi SW 5.8 mph - N/A   Clear
9:51 AM 63.0 °F - 57.9 °F 84% 29.87 in 9.0 mi SW 3.5 mph - N/A   Clear
10:48 AM 64.4 °F - 55.4 °F 73% 29.92 in 10.0 mi WNW 9.2 mph 26.5 mph N/A   Partly Cloudy
10:51 AM 66.0 °F - 54.0 °F 65% 29.89 in 10.0 mi NNW 17.3 mph 24.2 mph N/A   Partly Cloudy
11:51 AM 66.9 °F - 42.1 °F 40% 29.89 in 10.0 mi North 12.7 mph - N/A   Clear
12:51 PM 70.0 °F - 34.0 °F 27% 29.86 in 10.0 mi North 12.7 mph - N/A   Clear
1:51 PM 68.0 °F - 37.0 °F 32% 29.83 in 10.0 mi NNE 13.8 mph - N/A   Clear
3:51 PM 61.0 °F - 39.9 °F 46% 29.86 in 10.0 mi NE 15.0 mph 20.7 mph N/A   Clear
4:51 PM 57.9 °F - 39.9 °F 51% 29.88 in 10.0 mi NE 17.3 mph - N/A   Clear
5:51 PM 53.1 °F - 39.9 °F 61% 29.90 in 10.0 mi NNE 11.5 mph - N/A   Clear
6:51 PM 48.9 °F - 39.0 °F 69% 29.94 in 10.0 mi NNE 13.8 mph - N/A   Clear
7:51 PM 46.9 °F - 36.0 °F 66% 29.98 in 10.0 mi NE 9.2 mph - N/A   Clear
8:51 PM 46.0 °F 42.5 °F 35.1 °F 66% 29.99 in 10.0 mi NNE 6.9 mph - N/A   Clear
9:51 PM 46.0 °F 39.3 °F 30.0 °F 54% 30.01 in 10.0 mi NNE 16.1 mph - N/A   Clear
11:51 PM 39.9 °F 30.8 °F 12.9 °F 33% 30.10 in 10.0 mi NNE 18.4 mph 28.8 mph N/A   Clear